Flag for Switzerland Weather past 2 weeks in Grenchen, Solothurn, Switzerland

Now
41 °F

Quite cool.


Feels Like: 34 °F
Forecast: 35 / 51 °F
Wind: 15 mph from Southwest

Location: Grenchen

Current Time: Apr 2, 2015 at 6:52:50 AM

Latest Report: Apr 2, 2015 at 6:00 AM


Visibility: N/A

Pressure: 30.23 "Hg

Humidity: 74%

Dew point: 34 °F

Location of GrenchenLocation

Historic Weather in Grenchen — Graph

°F

Grenchen temperature yesterday

Maximum temperature yesterday: 47 °F (at 12:00 AM)
Minimum temperature yesterday: 39 °F (at 10:00 PM)
Average temperature yesterday: 43 °F

Past Weeks' High & Low Weather Summary

 TemperatureHumidityPressure
High64 °F (Mar 18, 4:00 PM)100% (Mar 24, 3:00 AM)30.39 "Hg (Mar 24, 3:00 AM)
Low29 °F (Mar 28, 6:00 AM)35% (Mar 24, 5:00 PM)29.62 "Hg (Mar 25, 1:00 PM)
Average46 °F76%30.05 "Hg
* Reported Mar 18 4:00 AM — Apr 2 5:00 AM, Grenchen, Weather by CustomWeather, © 2015

Note: Actual official high and low records may vary slightly from our data, if they occured in-between our weather recording intervals... More about our weather records

Advertising

Grenchen weather history for previous 24 hours

 ConditionsComfort  
Time TempWeatherWind HumidityBarometerVisibility
5:00 AM
Thu, Apr 2
41 °FQuite cool.15 mph76%30.26 "HgN/A
4:00 AM41 °FQuite cool.14 mph74%30.28 "HgN/A
3:00 AM40 °FQuite cool.12 mph78%30.31 "HgN/A
2:00 AM40 °FChilly.9 mph84%30.34 "HgN/A
1:00 AM39 °FChilly.8 mph86%30.35 "HgN/A
12:00 AM39 °FChilly.5 mph86%30.37 "HgN/A
11:00 PM
Wed, Apr 1
39 °FChilly.6 mph85%30.38 "HgN/A
10:00 PM39 °FChilly.6 mph86%30.39 "HgN/A
9:00 PM39 °FChilly.9 mph80%30.38 "HgN/A
8:00 PM40 °FQuite cool.7 mph78%30.36 "HgN/A
7:00 PM42 °FQuite cool.18 mph67%30.35 "HgN/A
6:00 PM44 °FQuite cool.17 mph57%30.32 "HgN/A
5:00 PM45 °FQuite cool.21 mph54%30.31 "HgN/A
4:00 PM44 °FQuite cool.23 mph57%30.29 "HgN/A
3:00 PM42 °FQuite cool.20 mph73%30.31 "HgN/A
2:00 PM42 °FQuite cool.22 mph71%30.31 "HgN/A
1:00 PM43 °FQuite cool.20 mph84%30.30 "HgN/A
12:00 PM40 °FChilly.17 mph89%30.32 "HgN/A
11:00 AM41 °FQuite cool.12 mph79%30.29 "HgN/A
10:00 AM40 °FQuite cool.15 mph85%30.28 "HgN/A
9:00 AM40 °FQuite cool.13 mph82%30.27 "HgN/A
8:00 AM40 °FQuite cool.15 mph74%30.26 "HgN/A
7:00 AM42 °FQuite cool.14 mph66%30.23 "HgN/A
6:00 AM43 °FQuite cool.21 mph58%30.19 "HgN/A
Weather by CustomWeather, © 2015

See weather overviewHow to use our weather pages